Time,TemperatureF,DewpointF,PressureIn,WindDirection,WindDirectionDegrees,WindSpeedMPH,WindSpeedGustMPH,Humidity,HourlyPrecipIn,Conditions,Clouds,dailyrainin,SoftwareType,DateUTC
2017-08-23 00:05:00,65.3,61.3,29.95,WNW,292,0.0,0.0,87,0.00,,,0.00,WUHU21623XXSP,2017-08-23 07:05:00,
2017-08-23 00:10:00,65.3,61.3,29.95,WNW,292,0.0,0.0,87,0.00,,,0.00,WUHU21623XXSP,2017-08-23 07:10:00,
2017-08-23 00:15:00,65.3,61.3,29.95,WNW,292,0.0,0.0,87,0.00,,,0.00,WUHU21623XXSP,2017-08-23 07:15:00,
2017-08-23 00:20:00,65.3,61.3,29.95,WNW,292,0.0,0.0,87,0.00,,,0.00,WUHU21623XXSP,2017-08-23 07:20:00,
2017-08-23 00:25:00,65.3,61.3,29.95,WNW,292,0.0,0.0,87,0.00,,,0.00,WUHU21623XXSP,2017-08-23 07:25:00,
2017-08-23 00:30:00,65.3,61.0,29.95,WNW,292,0.0,0.0,86,0.00,,,0.00,WUHU21623XXSP,2017-08-23 07:30:00,
2017-08-23 00:35:00,65.5,61.2,29.95,WNW,292,0.0,0.0,86,0.00,,,0.00,WUHU21623XXSP,2017-08-23 07:35:00,
2017-08-23 00:40:00,65.5,61.2,29.95,WNW,292,0.0,0.0,86,0.00,,,0.00,WUHU21623XXSP,2017-08-23 07:40:00,
2017-08-23 00:45:00,65.5,61.2,29.95,WNW,292,0.0,0.0,86,0.00,,,0.00,WUHU21623XXSP,2017-08-23 07:45:00,
2017-08-23 00:50:00,65.5,61.2,29.94,WNW,292,0.0,0.0,86,0.00,,,0.00,WUHU21623XXSP,2017-08-23 07:50:00,
2017-08-23 00:55:00,65.5,61.2,29.95,WNW,292,0.0,0.0,86,0.00,,,0.00,WUHU21623XXSP,2017-08-23 07:55:00,
2017-08-23 01:00:00,65.5,61.5,29.94,WNW,292,0.0,0.0,87,0.00,,,0.00,WUHU21623XXSP,2017-08-23 08:00:00,
2017-08-23 01:05:00,65.5,61.5,29.94,NNW,337,0.0,0.0,87,0.00,,,0.00,WUHU21623XXSP,2017-08-23 08:05:00,
2017-08-23 01:15:00,65.3,61.3,29.95,NW,315,0.0,0.0,87,0.00,,,0.00,WUHU21623XXSP,2017-08-23 08:15:00,
2017-08-23 01:20:00,65.3,61.3,29.94,NW,315,0.0,0.0,87,0.00,,,0.00,WUHU21623XXSP,2017-08-23 08:20:00,
2017-08-23 01:25:00,65.3,61.3,29.94,WNW,292,0.0,0.0,87,0.00,,,0.00,WUHU21623XXSP,2017-08-23 08:25:00,
2017-08-23 01:30:00,65.1,61.2,29.94,WNW,292,0.0,0.0,87,0.00,,,0.00,WUHU21623XXSP,2017-08-23 08:30:00,
2017-08-23 01:35:00,65.1,61.2,29.94,WNW,292,0.0,0.0,87,0.00,,,0.00,WUHU21623XXSP,2017-08-23 08:35:00,
2017-08-23 01:40:00,65.1,61.2,29.93,WNW,292,0.0,0.0,87,0.00,,,0.00,WUHU21623XXSP,2017-08-23 08:40:00,
2017-08-23 01:45:00,65.1,61.2,29.94,WNW,292,0.0,0.0,87,0.00,,,0.00,WUHU21623XXSP,2017-08-23 08:45:00,
2017-08-23 01:50:00,65.1,61.2,29.94,WNW,292,0.0,0.0,87,0.00,,,0.00,WUHU21623XXSP,2017-08-23 08:50:00,
2017-08-23 01:56:00,65.1,61.2,29.93,WNW,292,0.0,0.0,87,0.00,,,0.00,WUHU21623XXSP,2017-08-23 08:56:00,
2017-08-23 02:01:00,64.9,61.0,29.94,WNW,292,0.0,0.0,87,0.00,,,0.00,WUHU21623XXSP,2017-08-23 09:01:00,
2017-08-23 02:06:00,65.1,61.2,29.94,WNW,292,0.0,0.0,87,0.00,,,0.00,WUHU21623XXSP,2017-08-23 09:06:00,
2017-08-23 02:11:00,65.1,61.2,29.94,WNW,292,0.0,0.0,87,0.00,,,0.00,WUHU21623XXSP,2017-08-23 09:11:00,
2017-08-23 02:16:00,65.1,61.2,29.93,WNW,292,0.0,0.0,87,0.00,,,0.00,WUHU21623XXSP,2017-08-23 09:16:00,
2017-08-23 02:21:00,64.9,61.0,29.94,WNW,292,0.0,0.0,87,0.00,,,0.00,WUHU21623XXSP,2017-08-23 09:21:00,
2017-08-23 02:22:00,64.9,61.0,29.94,WNW,292,0.0,0.0,87,0.00,,,0.00,WUHU21623XXSP,2017-08-23 09:22:00,
2017-08-23 02:27:00,64.9,61.0,29.94,WNW,292,0.0,0.0,87,0.00,,,0.00,WUHU21623XXSP,2017-08-23 09:27:00,
2017-08-23 02:32:00,64.9,61.0,29.94,WNW,292,0.0,0.0,87,0.00,,,0.00,WUHU21623XXSP,2017-08-23 09:32:00,
2017-08-23 02:37:00,64.9,61.0,29.94,WNW,292,0.0,0.0,87,0.00,,,0.00,WUHU21623XXSP,2017-08-23 09:37:00,
2017-08-23 02:42:00,64.9,61.0,29.94,WNW,292,0.0,0.0,87,0.00,,,0.00,WUHU21623XXSP,2017-08-23 09:42:00,
2017-08-23 02:47:00,65.1,61.2,29.93,WNW,292,0.0,0.0,87,0.00,,,0.00,WUHU21623XXSP,2017-08-23 09:47:00,
2017-08-23 02:52:00,65.1,61.2,29.93,WNW,292,0.0,0.0,87,0.00,,,0.00,WUHU21623XXSP,2017-08-23 09:52:00,
2017-08-23 02:57:00,65.1,61.2,29.93,WNW,292,0.0,0.0,87,0.00,,,0.00,WUHU21623XXSP,2017-08-23 09:57:00,
2017-08-23 03:02:00,64.9,61.0,29.93,WNW,292,0.0,0.0,87,0.00,,,0.00,WUHU21623XXSP,2017-08-23 10:02:00,
2017-08-23 03:07:00,64.9,61.0,29.93,WNW,292,0.0,0.0,87,0.00,,,0.00,WUHU21623XXSP,2017-08-23 10:07:00,
2017-08-23 03:14:00,65.1,61.2,29.93,WNW,292,0.0,0.0,87,0.00,,,0.00,WUHU21623XXSP,2017-08-23 10:14:00,
2017-08-23 03:19:00,64.9,61.0,29.93,WNW,292,0.0,0.0,87,0.00,,,0.00,WUHU21623XXSP,2017-08-23 10:19:00,
2017-08-23 03:24:00,65.1,61.2,29.93,WNW,292,0.0,0.0,87,0.00,,,0.00,WUHU21623XXSP,2017-08-23 10:24:00,
2017-08-23 03:29:00,64.9,61.0,29.93,WNW,292,0.0,0.0,87,0.00,,,0.00,WUHU21623XXSP,2017-08-23 10:29:00,
2017-08-23 03:34:00,65.1,61.2,29.93,WNW,292,0.0,0.0,87,0.00,,,0.00,WUHU21623XXSP,2017-08-23 10:34:00,
2017-08-23 03:39:00,64.9,61.0,29.93,NW,315,0.0,0.0,87,0.00,,,0.00,WUHU21623XXSP,2017-08-23 10:39:00,
2017-08-23 03:44:00,64.9,61.0,29.92,NW,315,0.0,0.0,87,0.00,,,0.00,WUHU21623XXSP,2017-08-23 10:44:00,
2017-08-23 03:49:00,64.9,61.0,29.92,NW,315,0.0,0.0,87,0.00,,,0.00,WUHU21623XXSP,2017-08-23 10:49:00,
2017-08-23 03:54:00,64.9,61.0,29.92,NW,315,0.0,0.0,87,0.00,,,0.00,WUHU21623XXSP,2017-08-23 10:54:00,
2017-08-23 03:59:00,64.9,61.0,29.92,NW,315,0.0,0.0,87,0.00,,,0.00,WUHU21623XXSP,2017-08-23 10:59:00,
2017-08-23 04:04:00,64.9,61.0,29.92,NW,315,0.0,0.0,87,0.00,,,0.00,WUHU21623XXSP,2017-08-23 11:04:00,
2017-08-23 04:09:00,64.9,61.0,29.92,NW,315,0.0,0.0,87,0.00,,,0.00,WUHU21623XXSP,2017-08-23 11:09:00,
2017-08-23 04:14:00,64.9,61.0,29.92,NW,315,0.0,0.0,87,0.00,,,0.00,WUHU21623XXSP,2017-08-23 11:14:00,
2017-08-23 04:19:00,64.9,61.0,29.92,NW,315,0.0,0.0,87,0.00,,,0.00,WUHU21623XXSP,2017-08-23 11:19:00,
2017-08-23 04:24:00,64.9,61.0,29.92,NW,315,0.0,0.0,87,0.00,,,0.00,WUHU21623XXSP,2017-08-23 11:24:00,
2017-08-23 04:29:00,64.9,61.0,29.92,NW,315,0.0,0.0,87,0.00,,,0.00,WUHU21623XXSP,2017-08-23 11:29:00,
2017-08-23 04:34:00,64.9,61.0,29.92,NW,315,0.0,0.0,87,0.00,,,0.00,WUHU21623XXSP,2017-08-23 11:34:00,
2017-08-23 04:39:00,64.9,61.3,29.91,NW,315,0.0,0.0,88,0.00,,,0.00,WUHU21623XXSP,2017-08-23 11:39:00,
2017-08-23 04:44:00,64.9,61.3,29.92,NW,315,0.0,0.0,88,0.00,,,0.00,WUHU21623XXSP,2017-08-23 11:44:00,
2017-08-23 04:49:00,65.1,61.5,29.92,NW,315,0.0,0.0,88,0.00,,,0.00,WUHU21623XXSP,2017-08-23 11:49:00,
2017-08-23 04:54:00,64.9,61.3,29.92,WNW,292,0.0,0.0,88,0.00,,,0.00,WUHU21623XXSP,2017-08-23 11:54:00,
2017-08-23 04:59:00,64.9,61.3,29.92,WNW,292,0.0,0.0,88,0.00,,,0.00,WUHU21623XXSP,2017-08-23 11:59:00,
2017-08-23 05:04:00,64.8,61.2,29.92,WNW,292,0.0,0.0,88,0.00,,,0.00,WUHU21623XXSP,2017-08-23 12:04:00,
2017-08-23 05:05:00,64.8,61.2,29.92,WNW,292,0.0,0.0,88,0.00,,,0.00,WUHU21623XXSP,2017-08-23 12:05:00,
2017-08-23 05:10:00,64.8,61.2,29.92,WNW,292,0.0,0.0,88,0.00,,,0.00,WUHU21623XXSP,2017-08-23 12:10:00,
2017-08-23 05:15:00,64.8,61.2,29.92,WNW,292,0.0,0.0,88,0.00,,,0.00,WUHU21623XXSP,2017-08-23 12:15:00,
2017-08-23 05:20:00,64.8,61.2,29.92,WNW,292,0.0,0.0,88,0.00,,,0.00,WUHU21623XXSP,2017-08-23 12:20:00,
2017-08-23 05:25:00,64.8,61.2,29.92,WNW,292,0.0,0.0,88,0.00,,,0.00,WUHU21623XXSP,2017-08-23 12:25:00,
2017-08-23 05:30:00,64.6,61.0,29.93,WNW,292,0.0,0.0,88,0.00,,,0.00,WUHU21623XXSP,2017-08-23 12:30:00,
2017-08-23 05:35:00,64.8,61.2,29.92,WNW,292,0.0,0.0,88,0.00,,,0.00,WUHU21623XXSP,2017-08-23 12:35:00,
2017-08-23 05:40:00,64.8,61.2,29.92,WNW,292,0.0,0.0,88,0.00,,,0.00,WUHU21623XXSP,2017-08-23 12:40:00,
2017-08-23 05:45:00,64.8,61.2,29.92,WNW,292,0.0,0.0,88,0.00,,,0.00,WUHU21623XXSP,2017-08-23 12:45:00,
2017-08-23 05:50:00,64.6,61.0,29.92,WNW,292,0.0,0.0,88,0.00,,,0.00,WUHU21623XXSP,2017-08-23 12:50:00,
2017-08-23 05:55:00,64.6,61.0,29.92,WNW,292,0.0,0.0,88,0.00,,,0.00,WUHU21623XXSP,2017-08-23 12:55:00,
2017-08-23 06:00:00,64.6,61.0,29.92,WNW,292,0.0,0.0,88,0.00,,,0.00,WUHU21623XXSP,2017-08-23 13:00:00,
2017-08-23 06:05:00,64.6,61.0,29.92,WNW,292,0.0,0.0,88,0.00,,,0.00,WUHU21623XXSP,2017-08-23 13:05:00,
2017-08-23 06:10:00,64.4,61.2,29.93,WNW,292,0.0,0.0,89,0.00,,,0.00,WUHU21623XXSP,2017-08-23 13:10:00,
2017-08-23 06:15:00,64.4,61.2,29.92,WNW,292,0.0,0.0,89,0.00,,,0.00,WUHU21623XXSP,2017-08-23 13:15:00,
2017-08-23 06:20:00,64.2,61.0,29.93,WNW,292,0.0,0.0,89,0.00,,,0.00,WUHU21623XXSP,2017-08-23 13:20:00,
2017-08-23 06:25:00,64.2,61.0,29.93,WNW,292,0.0,0.0,89,0.00,,,0.00,WUHU21623XXSP,2017-08-23 13:25:00,
2017-08-23 06:30:00,64.6,61.3,29.93,WNW,292,0.0,0.0,89,0.00,,,0.00,WUHU21623XXSP,2017-08-23 13:30:00,
2017-08-23 06:35:00,64.6,61.3,29.93,NW,315,0.0,0.0,89,0.00,,,0.00,WUHU21623XXSP,2017-08-23 13:35:00,
2017-08-23 06:40:00,64.6,61.3,29.93,NW,315,0.0,0.0,89,0.00,,,0.00,WUHU21623XXSP,2017-08-23 13:40:00,
2017-08-23 06:45:00,64.6,61.3,29.93,NW,315,0.0,0.0,89,0.00,,,0.00,WUHU21623XXSP,2017-08-23 13:45:00,
2017-08-23 06:50:00,64.6,61.3,29.93,NW,315,0.0,0.0,89,0.00,,,0.00,WUHU21623XXSP,2017-08-23 13:50:00,
2017-08-23 06:55:00,64.6,61.3,29.94,NW,315,0.0,0.0,89,0.00,,,0.00,WUHU21623XXSP,2017-08-23 13:55:00,
2017-08-23 07:00:00,64.6,61.3,29.93,NW,315,0.0,0.0,89,0.00,,,0.00,WUHU21623XXSP,2017-08-23 14:00:00,
2017-08-23 07:05:00,64.6,61.0,29.93,NW,315,0.0,0.0,88,0.00,,,0.00,WUHU21623XXSP,2017-08-23 14:05:00,
2017-08-23 07:10:00,64.8,61.2,29.93,NW,315,0.0,0.0,88,0.00,,,0.00,WUHU21623XXSP,2017-08-23 14:10:00,
2017-08-23 07:15:00,64.8,61.2,29.94,NW,315,0.0,0.0,88,0.00,,,0.00,WUHU21623XXSP,2017-08-23 14:15:00,
2017-08-23 07:20:00,64.8,61.2,29.93,NW,315,0.0,0.0,88,0.00,,,0.00,WUHU21623XXSP,2017-08-23 14:20:00,
2017-08-23 07:25:00,64.8,61.5,29.94,NW,315,0.0,0.0,89,0.00,,,0.00,WUHU21623XXSP,2017-08-23 14:25:00,
2017-08-23 07:30:00,64.8,61.5,29.94,NW,315,0.0,0.0,89,0.00,,,0.00,WUHU21623XXSP,2017-08-23 14:30:00,
2017-08-23 07:35:00,64.8,61.5,29.94,NW,315,0.0,0.0,89,0.00,,,0.00,WUHU21623XXSP,2017-08-23 14:35:00,
2017-08-23 07:40:00,64.8,61.5,29.94,NW,315,0.0,0.0,89,0.00,,,0.00,WUHU21623XXSP,2017-08-23 14:40:00,
2017-08-23 07:45:00,64.8,61.5,29.94,NW,315,0.0,0.0,89,0.00,,,0.00,WUHU21623XXSP,2017-08-23 14:45:00,
2017-08-23 07:50:00,64.8,61.5,29.94,NW,315,0.0,0.0,89,0.00,,,0.00,WUHU21623XXSP,2017-08-23 14:50:00,
2017-08-23 07:55:00,64.9,61.7,29.94,NW,315,0.0,0.0,89,0.00,,,0.00,WUHU21623XXSP,2017-08-23 14:55:00,
2017-08-23 08:00:00,64.9,61.7,29.93,NW,315,0.0,0.0,89,0.00,,,0.00,WUHU21623XXSP,2017-08-23 15:00:00,
2017-08-23 08:05:00,64.9,61.7,29.94,NW,315,0.0,0.0,89,0.00,,,0.00,WUHU21623XXSP,2017-08-23 15:05:00,
2017-08-23 08:10:00,64.9,61.7,29.94,NW,315,0.0,0.0,89,0.00,,,0.00,WUHU21623XXSP,2017-08-23 15:10:00,
2017-08-23 08:15:00,65.1,61.8,29.94,NW,315,0.0,0.0,89,0.00,,,0.00,WUHU21623XXSP,2017-08-23 15:15:00,
2017-08-23 08:20:00,64.9,61.7,29.94,NW,315,0.0,0.0,89,0.00,,,0.00,WUHU21623XXSP,2017-08-23 15:20:00,
2017-08-23 08:25:00,64.9,61.7,29.94,NW,315,0.0,0.0,89,0.00,,,0.00,WUHU21623XXSP,2017-08-23 15:25:00,
2017-08-23 08:26:00,64.9,61.7,29.94,NW,315,0.0,0.0,89,0.00,,,0.00,WUHU21623XXSP,2017-08-23 15:26:00,
2017-08-23 08:31:00,64.9,61.7,29.94,NW,315,0.0,0.0,89,0.00,,,0.00,WUHU21623XXSP,2017-08-23 15:31:00,
2017-08-23 08:36:00,64.9,61.7,29.94,NW,315,0.0,0.0,89,0.00,,,0.00,WUHU21623XXSP,2017-08-23 15:36:00,
2017-08-23 08:41:00,64.9,61.7,29.95,NW,315,0.0,0.0,89,0.00,,,0.00,WUHU21623XXSP,2017-08-23 15:41:00,
2017-08-23 08:46:00,65.1,61.8,29.95,NW,315,0.0,0.0,89,0.00,,,0.00,WUHU21623XXSP,2017-08-23 15:46:00,
2017-08-23 08:51:00,65.3,62.0,29.95,NW,315,0.0,0.0,89,0.00,,,0.00,WUHU21623XXSP,2017-08-23 15:51:00,
2017-08-23 08:56:00,65.3,62.0,29.95,NW,315,0.0,0.0,89,0.00,,,0.00,WUHU21623XXSP,2017-08-23 15:56:00,
2017-08-23 09:01:00,65.5,62.2,29.94,NW,315,0.0,0.0,89,0.00,,,0.00,WUHU21623XXSP,2017-08-23 16:01:00,
2017-08-23 09:06:00,65.7,62.5,29.94,NW,315,0.0,0.0,89,0.00,,,0.00,WUHU21623XXSP,2017-08-23 16:06:00,
2017-08-23 09:11:00,65.8,62.3,29.94,NW,315,0.0,0.0,88,0.00,,,0.00,WUHU21623XXSP,2017-08-23 16:11:00,
2017-08-23 09:16:00,66.0,62.3,29.94,NW,315,0.0,0.0,88,0.00,,,0.00,WUHU21623XXSP,2017-08-23 16:16:00,
2017-08-23 09:21:00,66.0,62.0,29.95,NW,315,0.0,0.0,87,0.00,,,0.00,WUHU21623XXSP,2017-08-23 16:21:00,
2017-08-23 09:26:00,66.2,62.2,29.95,NW,315,0.0,0.0,87,0.00,,,0.00,WUHU21623XXSP,2017-08-23 16:26:00,
2017-08-23 09:31:00,66.2,62.2,29.94,NW,315,0.0,0.0,87,0.00,,,0.00,WUHU21623XXSP,2017-08-23 16:31:00,
2017-08-23 09:38:00,66.4,62.7,29.94,NW,315,0.0,0.0,88,0.00,,,0.00,WUHU21623XXSP,2017-08-23 16:38:00,
2017-08-23 09:43:00,66.7,62.7,29.94,NW,315,0.0,0.0,87,0.00,,,0.00,WUHU21623XXSP,2017-08-23 16:43:00,
2017-08-23 09:51:00,66.9,62.6,29.94,NW,315,0.0,0.0,86,0.00,,,0.00,WUHU21623XXSP,2017-08-23 16:51:00,
2017-08-23 09:56:00,67.3,62.9,29.94,NW,315,0.0,0.0,86,0.00,,,0.00,WUHU21623XXSP,2017-08-23 16:56:00,
2017-08-23 10:01:00,67.1,62.4,29.94,NW,315,0.0,0.0,85,0.00,,,0.00,WUHU21623XXSP,2017-08-23 17:01:00,
2017-08-23 10:06:00,67.3,62.6,29.94,West,270,0.0,0.0,85,0.00,,,0.00,WUHU21623XXSP,2017-08-23 17:06:00,
2017-08-23 10:11:00,67.6,63.0,29.94,West,270,0.0,0.0,85,0.00,,,0.00,WUHU21623XXSP,2017-08-23 17:11:00,
2017-08-23 10:16:00,67.6,62.6,29.94,West,270,0.0,0.0,84,0.00,,,0.00,WUHU21623XXSP,2017-08-23 17:16:00,
2017-08-23 10:21:00,67.5,62.5,29.94,West,270,0.0,0.0,84,0.00,,,0.00,WUHU21623XXSP,2017-08-23 17:21:00,
2017-08-23 10:26:00,67.6,62.6,29.95,West,270,0.0,0.0,84,0.00,,,0.00,WUHU21623XXSP,2017-08-23 17:26:00,
2017-08-23 10:31:00,67.8,62.5,29.95,West,270,0.0,0.0,83,0.00,,,0.00,WUHU21623XXSP,2017-08-23 17:31:00,
2017-08-23 10:36:00,67.8,62.2,29.94,West,270,0.0,0.0,82,0.00,,,0.00,WUHU21623XXSP,2017-08-23 17:36:00,
2017-08-23 10:41:00,68.0,62.7,29.95,SSW,202,0.0,0.0,83,0.00,,,0.00,WUHU21623XXSP,2017-08-23 17:41:00,
2017-08-23 10:46:00,67.8,62.2,29.95,West,270,0.0,0.0,82,0.00,,,0.00,WUHU21623XXSP,2017-08-23 17:46:00,
2017-08-23 10:51:00,68.2,62.8,29.95,West,270,0.0,0.0,83,0.00,,,0.00,WUHU21623XXSP,2017-08-23 17:51:00,
2017-08-23 10:56:00,67.8,62.5,29.94,West,270,0.0,0.0,83,0.00,,,0.00,WUHU21623XXSP,2017-08-23 17:56:00,
2017-08-23 11:01:00,67.8,62.5,29.95,WSW,247,0.0,0.0,83,0.00,,,0.00,WUHU21623XXSP,2017-08-23 18:01:00,
2017-08-23 11:06:00,67.6,62.3,29.94,WNW,292,0.0,0.2,83,0.00,,,0.00,WUHU21623XXSP,2017-08-23 18:06:00,
2017-08-23 11:11:00,68.0,62.5,29.94,WNW,292,0.0,0.2,83,0.00,,,0.00,WUHU21623XXSP,2017-08-23 18:11:00,
2017-08-23 11:16:00,68.4,62.7,29.94,North,0,0.0,0.0,82,0.00,,,0.00,WUHU21623XXSP,2017-08-23 18:16:00,
2017-08-23 11:21:00,68.5,62.5,29.95,South,180,0.0,0.0,81,0.00,,,0.00,WUHU21623XXSP,2017-08-23 18:21:00,
2017-08-23 11:26:00,68.5,62.5,29.94,NW,315,0.0,0.0,81,0.00,,,0.00,WUHU21623XXSP,2017-08-23 18:26:00,
2017-08-23 11:31:00,68.4,62.3,29.95,West,270,0.0,0.0,81,0.00,,,0.00,WUHU21623XXSP,2017-08-23 18:31:00,
2017-08-23 11:36:00,68.7,62.7,29.95,NNW,337,0.0,0.0,81,0.00,,,0.00,WUHU21623XXSP,2017-08-23 18:36:00,
2017-08-23 11:41:00,68.5,62.5,29.94,West,270,0.0,0.0,81,0.00,,,0.00,WUHU21623XXSP,2017-08-23 18:41:00,
2017-08-23 11:46:00,67.8,62.2,29.94,West,270,0.0,0.0,82,0.00,,,0.00,WUHU21623XXSP,2017-08-23 18:46:00,
2017-08-23 11:51:00,67.6,62.0,29.94,West,270,0.0,0.0,82,0.00,,,0.00,WUHU21623XXSP,2017-08-23 18:51:00,
2017-08-23 11:56:00,67.3,62.0,29.94,West,270,0.0,0.0,83,0.00,,,0.00,WUHU21623XXSP,2017-08-23 18:56:00,
2017-08-23 12:01:00,67.1,62.1,29.94,SSW,202,0.0,0.0,84,0.00,,,0.00,WUHU21623XXSP,2017-08-23 19:01:00,
2017-08-23 12:06:00,66.9,61.9,29.94,WSW,247,0.0,2.5,84,0.00,,,0.00,WUHU21623XXSP,2017-08-23 19:06:00,
2017-08-23 12:11:00,66.7,61.7,29.94,West,270,0.0,2.5,84,0.00,,,0.00,WUHU21623XXSP,2017-08-23 19:11:00,
2017-08-23 12:16:00,66.7,61.7,29.94,West,270,0.0,2.5,84,0.00,,,0.00,WUHU21623XXSP,2017-08-23 19:16:00,
2017-08-23 12:21:00,66.6,61.6,29.94,West,270,0.0,2.5,84,0.00,,,0.00,WUHU21623XXSP,2017-08-23 19:21:00,
2017-08-23 12:26:00,66.7,61.7,29.94,NW,315,0.0,0.0,84,0.00,,,0.00,WUHU21623XXSP,2017-08-23 19:26:00,
2017-08-23 12:31:00,67.1,61.6,29.94,NW,315,0.0,0.0,83,0.00,,,0.00,WUHU21623XXSP,2017-08-23 19:31:00,
2017-08-23 12:36:00,66.9,61.3,29.94,WNW,292,0.0,0.0,82,0.00,,,0.00,WUHU21623XXSP,2017-08-23 19:36:00,
2017-08-23 12:41:00,67.6,62.3,29.94,WSW,247,0.0,0.0,83,0.00,,,0.00,WUHU21623XXSP,2017-08-23 19:41:00,
2017-08-23 12:46:00,67.6,62.0,29.93,NNW,337,0.0,0.0,82,0.00,,,0.00,WUHU21623XXSP,2017-08-23 19:46:00,
2017-08-23 12:51:00,67.8,62.2,29.93,WNW,292,0.0,0.0,82,0.00,,,0.00,WUHU21623XXSP,2017-08-23 19:51:00,
2017-08-23 12:57:00,67.6,61.7,29.93,North,0,0.0,0.0,81,0.00,,,0.00,WUHU21623XXSP,2017-08-23 19:57:00,
2017-08-23 13:02:00,68.2,62.2,29.93,WSW,247,0.0,0.0,81,0.00,,,0.00,WUHU21623XXSP,2017-08-23 20:02:00,
2017-08-23 13:07:00,67.8,61.8,29.93,WNW,292,0.0,0.0,81,0.00,,,0.00,WUHU21623XXSP,2017-08-23 20:07:00,
2017-08-23 13:12:00,67.6,62.0,29.93,WSW,247,0.0,0.0,82,0.00,,,0.00,WUHU21623XXSP,2017-08-23 20:12:00,
2017-08-23 13:17:00,68.0,62.0,29.93,NNW,337,0.0,0.0,81,0.00,,,0.00,WUHU21623XXSP,2017-08-23 20:17:00,
2017-08-23 13:22:00,68.7,62.3,29.93,WSW,247,0.0,0.0,80,0.00,,,0.00,WUHU21623XXSP,2017-08-23 20:22:00,